Time,TemperatureF,DewpointF,PressureIn,WindDirection,WindDirectionDegrees,WindSpeedMPH,WindSpeedGustMPH,Humidity,HourlyPrecipIn,Conditions,Clouds,dailyrainin,SoftwareType,DateUTC
2013-02-28 00:00:00,28.8,0.5,30.46,SW,218,0.0,0.0,29,0.00,,,0.00,Wunderground v.1.15,2013-02-28 07:00:00,
2013-02-28 00:05:00,28.7,0.4,30.46,SW,218,0.0,0.0,29,0.00,,,0.00,Wunderground v.1.15,2013-02-28 07:05:00,
2013-02-28 00:10:00,29.1,0.7,30.46,SW,218,0.0,0.0,29,0.00,,,0.00,Wunderground v.1.15,2013-02-28 07:10:00,
2013-02-28 00:14:00,29.3,0.9,30.46,SW,218,0.0,0.0,29,0.00,,,0.00,Wunderground v.1.15,2013-02-28 07:14:00,
2013-02-28 00:20:00,29.2,0.8,30.47,SW,218,0.0,0.0,29,0.00,,,0.00,Wunderground v.1.15,2013-02-28 07:20:00,
2013-02-28 00:25:00,28.8,0.5,30.47,SW,218,0.0,0.0,29,0.00,,,0.00,Wunderground v.1.15,2013-02-28 07:25:00,
2013-02-28 00:30:00,28.5,0.9,30.47,SW,218,0.0,0.0,30,0.00,,,0.00,Wunderground v.1.15,2013-02-28 07:30:00,
2013-02-28 00:35:00,28.2,0.7,30.47,SW,218,0.0,0.0,30,0.00,,,0.00,Wunderground v.1.15,2013-02-28 07:35:00,
2013-02-28 00:40:00,28.2,0.7,30.47,SW,218,0.0,0.0,30,0.00,,,0.00,Wunderground v.1.15,2013-02-28 07:40:00,
2013-02-28 00:45:00,28.0,0.5,30.47,SW,218,0.0,0.0,30,0.00,,,0.00,Wunderground v.1.15,2013-02-28 07:45:00,
2013-02-28 00:50:00,27.9,0.4,30.47,SW,218,0.0,0.0,30,0.00,,,0.00,Wunderground v.1.15,2013-02-28 07:50:00,
2013-02-28 00:54:00,27.7,0.2,30.47,SW,218,0.0,0.0,30,0.00,,,0.00,Wunderground v.1.15,2013-02-28 07:54:00,
2013-02-28 01:00:00,27.7,0.9,30.48,SW,218,0.0,0.0,31,0.00,,,0.00,Wunderground v.1.15,2013-02-28 08:00:00,
2013-02-28 01:05:00,27.8,1.0,30.47,SW,218,0.0,0.0,31,0.00,,,0.00,Wunderground v.1.15,2013-02-28 08:05:00,
2013-02-28 01:10:00,27.9,1.1,30.47,SW,218,0.0,0.0,31,0.00,,,0.00,Wunderground v.1.15,2013-02-28 08:10:00,
2013-02-28 01:15:00,28.2,1.4,30.47,SW,218,0.0,0.0,31,0.00,,,0.00,Wunderground v.1.15,2013-02-28 08:15:00,
2013-02-28 01:20:00,28.5,1.6,30.47,SW,218,0.0,0.0,31,0.00,,,0.00,Wunderground v.1.15,2013-02-28 08:20:00,
2013-02-28 01:25:00,28.7,1.8,30.47,SW,218,0.0,0.0,31,0.00,,,0.00,Wunderground v.1.15,2013-02-28 08:25:00,
2013-02-28 01:30:00,28.7,1.8,30.47,SW,218,0.0,0.0,31,0.00,,,0.00,Wunderground v.1.15,2013-02-28 08:30:00,
2013-02-28 01:35:00,28.7,1.8,30.47,SW,218,0.0,0.0,31,0.00,,,0.00,Wunderground v.1.15,2013-02-28 08:35:00,
2013-02-28 01:40:00,28.5,2.3,30.47,SW,218,0.0,1.0,32,0.00,,,0.00,Wunderground v.1.15,2013-02-28 08:40:00,
2013-02-28 01:45:00,28.4,2.2,30.47,SW,218,0.0,1.0,32,0.00,,,0.00,Wunderground v.1.15,2013-02-28 08:45:00,
2013-02-28 01:55:00,27.7,1.6,30.47,SW,218,0.0,0.0,32,0.00,,,0.00,Wunderground v.1.15,2013-02-28 08:55:00,
2013-02-28 02:00:00,27.5,2.1,30.47,SW,218,0.0,0.0,33,0.00,,,0.00,Wunderground v.1.15,2013-02-28 09:00:00,
2013-02-28 02:05:00,27.4,2.0,30.47,SW,218,0.0,0.0,33,0.00,,,0.00,Wunderground v.1.15,2013-02-28 09:05:00,
2013-02-28 02:10:00,27.1,1.8,30.47,SW,218,0.0,0.0,33,0.00,,,0.00,Wunderground v.1.15,2013-02-28 09:10:00,
2013-02-28 02:15:00,27.0,2.3,30.47,SW,218,0.0,0.0,34,0.00,,,0.00,Wunderground v.1.15,2013-02-28 09:15:00,
2013-02-28 02:20:00,27.4,2.7,30.46,SW,218,0.0,0.0,34,0.00,,,0.00,Wunderground v.1.15,2013-02-28 09:20:00,
2013-02-28 02:25:00,27.7,2.3,30.46,SW,218,0.0,0.0,33,0.00,,,0.00,Wunderground v.1.15,2013-02-28 09:25:00,
2013-02-28 02:30:00,27.7,2.3,30.46,SW,221,0.0,2.0,33,0.00,,,0.00,Wunderground v.1.15,2013-02-28 09:30:00,
2013-02-28 02:35:00,28.0,2.6,30.45,SW,221,0.0,2.0,33,0.00,,,0.00,Wunderground v.1.15,2013-02-28 09:35:00,
2013-02-28 02:40:00,28.3,2.8,30.45,SW,221,0.0,0.0,33,0.00,,,0.00,Wunderground v.1.15,2013-02-28 09:40:00,
2013-02-28 02:45:00,28.2,2.7,30.45,SW,221,0.0,0.0,33,0.00,,,0.00,Wunderground v.1.15,2013-02-28 09:45:00,
2013-02-28 02:49:00,28.4,2.9,30.45,SW,221,0.0,2.0,33,0.00,,,0.00,Wunderground v.1.15,2013-02-28 09:49:00,
2013-02-28 02:55:00,28.7,3.2,30.45,SW,221,0.0,2.0,33,0.00,,,0.00,Wunderground v.1.15,2013-02-28 09:55:00,
2013-02-28 03:05:00,28.7,3.2,30.45,SW,221,0.0,0.0,33,0.00,,,0.00,Wunderground v.1.15,2013-02-28 10:05:00,
2013-02-28 03:10:00,28.4,2.9,30.45,SW,221,0.0,0.0,33,0.00,,,0.00,Wunderground v.1.15,2013-02-28 10:10:00,
2013-02-28 03:15:00,28.1,2.6,30.45,SW,221,0.0,3.0,33,0.00,,,0.00,Wunderground v.1.15,2013-02-28 10:15:00,
2013-02-28 03:20:00,28.1,3.3,30.44,SW,221,0.0,0.0,34,0.00,,,0.00,Wunderground v.1.15,2013-02-28 10:20:00,
2013-02-28 03:25:00,28.0,3.2,30.45,SW,221,0.0,0.0,34,0.00,,,0.00,Wunderground v.1.15,2013-02-28 10:25:00,
2013-02-28 03:29:00,27.7,2.9,30.45,SW,221,0.0,0.0,34,0.00,,,0.00,Wunderground v.1.15,2013-02-28 10:29:00,
2013-02-28 03:35:00,27.3,3.2,30.45,SW,221,0.0,0.0,35,0.00,,,0.00,Wunderground v.1.15,2013-02-28 10:35:00,
2013-02-28 03:40:00,26.9,2.8,30.45,SW,221,0.0,0.0,35,0.00,,,0.00,Wunderground v.1.15,2013-02-28 10:40:00,
2013-02-28 03:45:00,27.0,2.9,30.45,SW,227,0.0,0.0,35,0.00,,,0.00,Wunderground v.1.15,2013-02-28 10:45:00,
2013-02-28 03:50:00,27.6,3.5,30.45,SW,235,1.0,2.0,35,0.00,,,0.00,Wunderground v.1.15,2013-02-28 10:50:00,
2013-02-28 03:55:00,28.0,3.2,30.45,SW,236,1.0,2.0,34,0.00,,,0.00,Wunderground v.1.15,2013-02-28 10:55:00,
2013-02-28 04:00:00,28.3,3.5,30.45,SW,236,1.0,1.0,34,0.00,,,0.00,Wunderground v.1.15,2013-02-28 11:00:00,
2013-02-28 04:05:00,28.2,3.4,30.45,SW,236,1.0,1.0,34,0.00,,,0.00,Wunderground v.1.15,2013-02-28 11:05:00,
2013-02-28 04:09:00,28.3,3.5,30.45,WSW,237,1.0,1.0,34,0.00,,,0.00,Wunderground v.1.15,2013-02-28 11:09:00,
2013-02-28 04:15:00,28.3,3.5,30.45,WSW,237,1.0,1.0,34,0.00,,,0.00,Wunderground v.1.15,2013-02-28 11:15:00,
2013-02-28 04:25:00,28.0,2.6,30.45,WSW,244,1.0,2.0,33,0.00,,,0.00,Wunderground v.1.15,2013-02-28 11:25:00,
2013-02-28 04:30:00,28.1,2.6,30.45,WSW,246,1.0,2.0,33,0.00,,,0.00,Wunderground v.1.15,2013-02-28 11:30:00,
2013-02-28 04:35:00,28.1,2.6,30.45,WSW,255,1.0,2.0,33,0.00,,,0.00,Wunderground v.1.15,2013-02-28 11:35:00,
2013-02-28 04:40:00,28.4,2.9,30.46,West,268,2.0,4.0,33,0.00,,,0.00,Wunderground v.1.15,2013-02-28 11:40:00,
2013-02-28 04:45:00,28.3,2.8,30.46,West,268,1.0,4.0,33,0.00,,,0.00,Wunderground v.1.15,2013-02-28 11:45:00,
2013-02-28 04:50:00,28.1,2.6,30.46,West,269,0.0,2.0,33,0.00,,,0.00,Wunderground v.1.15,2013-02-28 11:50:00,
2013-02-28 04:55:00,28.0,2.6,30.46,West,269,1.0,2.0,33,0.00,,,0.00,Wunderground v.1.15,2013-02-28 11:55:00,
2013-02-28 05:00:00,27.9,2.5,30.47,West,269,1.0,2.0,33,0.00,,,0.00,Wunderground v.1.15,2013-02-28 12:00:00,
2013-02-28 05:05:00,27.8,2.4,30.47,West,274,1.0,2.0,33,0.00,,,0.00,Wunderground v.1.15,2013-02-28 12:05:00,
2013-02-28 05:10:00,27.8,2.4,30.47,West,275,1.0,3.0,33,0.00,,,0.00,Wunderground v.1.15,2013-02-28 12:10:00,
2013-02-28 05:15:00,27.6,2.8,30.48,West,275,1.0,3.0,34,0.00,,,0.00,Wunderground v.1.15,2013-02-28 12:15:00,
2013-02-28 05:20:00,27.5,2.8,30.48,West,277,1.0,1.0,34,0.00,,,0.00,Wunderground v.1.15,2013-02-28 12:20:00,
2013-02-28 05:25:00,27.3,2.6,30.48,West,278,1.0,1.0,34,0.00,,,0.00,Wunderground v.1.15,2013-02-28 12:25:00,
2013-02-28 05:30:00,27.1,2.4,30.48,West,278,1.0,1.0,34,0.00,,,0.00,Wunderground v.1.15,2013-02-28 12:30:00,
2013-02-28 05:35:00,26.9,2.8,30.48,West,278,0.0,1.0,35,0.00,,,0.00,Wunderground v.1.15,2013-02-28 12:35:00,
2013-02-28 05:40:00,26.8,2.8,30.49,West,280,1.0,1.0,35,0.00,,,0.00,Wunderground v.1.15,2013-02-28 12:40:00,
2013-02-28 05:45:00,26.8,2.8,30.48,West,280,1.0,1.0,35,0.00,,,0.00,Wunderground v.1.15,2013-02-28 12:45:00,
2013-02-28 05:49:00,26.7,2.7,30.49,West,280,1.0,1.0,35,0.00,,,0.00,Wunderground v.1.15,2013-02-28 12:49:00,
2013-02-28 05:55:00,26.4,3.0,30.49,West,280,0.0,1.0,36,0.00,,,0.00,Wunderground v.1.15,2013-02-28 12:55:00,
2013-02-28 06:00:00,26.3,2.9,30.49,West,280,0.0,0.0,36,0.00,,,0.00,Wunderground v.1.15,2013-02-28 13:00:00,
2013-02-28 06:05:00,26.2,2.8,30.49,West,280,0.0,0.0,36,0.00,,,0.00,Wunderground v.1.15,2013-02-28 13:05:00,
2013-02-28 06:10:00,26.1,3.3,30.49,West,280,0.0,0.0,37,0.00,,,0.00,Wunderground v.1.15,2013-02-28 13:10:00,
2013-02-28 06:15:00,25.8,3.1,30.50,West,280,0.0,0.0,37,0.00,,,0.00,Wunderground v.1.15,2013-02-28 13:15:00,
2013-02-28 06:20:00,25.6,3.5,30.50,West,280,0.0,0.0,38,0.00,,,0.00,Wunderground v.1.15,2013-02-28 13:20:00,
2013-02-28 06:25:00,25.3,3.2,30.50,West,280,0.0,0.0,38,0.00,,,0.00,Wunderground v.1.15,2013-02-28 13:25:00,
2013-02-28 06:30:00,25.0,2.9,30.50,West,280,0.0,5.0,38,0.00,,,0.00,Wunderground v.1.15,2013-02-28 13:30:00,
2013-02-28 06:35:00,24.8,3.3,30.50,West,280,0.0,5.0,39,0.00,,,0.00,Wunderground v.1.15,2013-02-28 13:35:00,
2013-02-28 06:40:00,24.8,3.3,30.50,West,280,0.0,0.0,39,0.00,,,0.00,Wunderground v.1.15,2013-02-28 13:40:00,
2013-02-28 06:44:00,24.9,3.4,30.50,West,280,0.0,1.0,39,0.00,,,0.00,Wunderground v.1.15,2013-02-28 13:44:00,
2013-02-28 06:50:00,25.1,3.6,30.50,West,280,0.0,0.0,39,0.00,,,0.00,Wunderground v.1.15,2013-02-28 13:50:00,
2013-02-28 06:55:00,25.3,3.8,30.51,West,280,0.0,0.0,39,0.00,,,0.00,Wunderground v.1.15,2013-02-28 13:55:00,
2013-02-28 06:59:00,25.4,3.8,30.51,West,280,0.0,1.0,39,0.00,,,0.00,Wunderground v.1.15,2013-02-28 13:59:00,
2013-02-28 07:05:00,25.7,3.6,30.51,West,280,0.0,1.0,38,0.00,,,0.00,Wunderground v.1.15,2013-02-28 14:05:00,
2013-02-28 07:10:00,26.0,3.8,30.51,West,280,0.0,0.0,38,0.00,,,0.00,Wunderground v.1.15,2013-02-28 14:10:00,
2013-02-28 07:15:00,26.2,4.0,30.51,West,280,0.0,0.0,38,0.00,,,0.00,Wunderground v.1.15,2013-02-28 14:15:00,
2013-02-28 07:20:00,26.5,3.7,30.51,West,280,0.0,0.0,37,0.00,,,0.00,Wunderground v.1.15,2013-02-28 14:20:00,
2013-02-28 07:25:00,26.9,4.1,30.52,West,280,0.0,0.0,37,0.00,,,0.00,Wunderground v.1.15,2013-02-28 14:25:00,
2013-02-28 07:30:00,27.5,4.6,30.52,West,281,1.0,1.0,37,0.00,,,0.00,Wunderground v.1.15,2013-02-28 14:30:00,
2013-02-28 07:35:00,28.2,4.6,30.52,West,281,1.0,2.0,36,0.00,,,0.00,Wunderground v.1.15,2013-02-28 14:35:00,
2013-02-28 07:39:00,29.1,4.8,30.52,WNW,298,1.0,3.0,35,0.00,,,0.00,Wunderground v.1.15,2013-02-28 14:39:00,
2013-02-28 07:45:00,29.7,4.7,30.53,WNW,302,2.0,3.0,34,0.00,,,0.00,Wunderground v.1.15,2013-02-28 14:45:00,
2013-02-28 07:50:00,30.1,5.1,30.53,NW,307,1.0,1.0,34,0.00,,,0.00,Wunderground v.1.15,2013-02-28 14:50:00,
2013-02-28 08:00:00,30.9,5.1,30.53,NW,312,1.0,1.0,33,0.00,,,0.00,Wunderground v.1.15,2013-02-28 15:00:00,
2013-02-28 08:05:00,31.1,4.6,30.53,NW,315,2.0,2.0,32,0.00,,,0.00,Wunderground v.1.15,2013-02-28 15:05:00,
2013-02-28 08:10:00,31.4,4.9,30.53,NW,324,2.0,2.0,32,0.00,,,0.00,Wunderground v.1.15,2013-02-28 15:10:00,
2013-02-28 08:15:00,31.7,5.2,30.53,NNW,327,2.0,2.0,32,0.00,,,0.00,Wunderground v.1.15,2013-02-28 15:15:00,
2013-02-28 08:20:00,32.0,4.7,30.53,NNW,346,2.0,3.0,31,0.00,,,0.00,Wunderground v.1.15,2013-02-28 15:20:00,
2013-02-28 08:25:00,32.0,5.4,30.53,North,355,3.0,3.0,32,0.00,,,0.00,Wunderground v.1.15,2013-02-28 15:25:00,
2013-02-28 08:30:00,32.2,4.9,30.53,North,11,3.0,6.0,31,0.00,,,0.00,Wunderground v.1.15,2013-02-28 15:30:00,
2013-02-28 08:35:00,32.3,5.0,30.53,NNW,339,4.0,6.0,31,0.00,,,0.00,Wunderground v.1.15,2013-02-28 15:35:00,
2013-02-28 08:40:00,32.4,5.1,30.53,NNW,338,4.0,4.0,31,0.00,,,0.00,Wunderground v.1.15,2013-02-28 15:40:00,
2013-02-28 08:44:00,32.8,5.4,30.53,NNW,334,3.0,4.0,31,0.00,,,0.00,Wunderground v.1.15,2013-02-28 15:44:00,
2013-02-28 08:50:00,33.2,5.8,30.54,NNW,343,3.0,3.0,31,0.00,,,0.00,Wunderground v.1.15,2013-02-28 15:50:00,
2013-02-28 08:55:00,33.4,5.2,30.53,NNE,20,3.0,3.0,30,0.00,,,0.00,Wunderground v.1.15,2013-02-28 15:55:00,
2013-02-28 09:00:00,33.5,5.3,30.53,North,5,4.0,4.0,30,0.00,,,0.00,Wunderground v.1.15,2013-02-28 16:00:00,
2013-02-28 09:05:00,33.9,5.7,30.53,North,5,3.0,4.0,30,0.00,,,0.00,Wunderground v.1.15,2013-02-28 16:05:00,
2013-02-28 09:10:00,34.4,6.1,30.53,NNW,338,3.0,4.0,30,0.00,,,0.00,Wunderground v.1.15,2013-02-28 16:10:00,
2013-02-28 09:15:00,34.7,6.4,30.53,NNW,346,3.0,4.0,30,0.00,,,0.00,Wunderground v.1.15,2013-02-28 16:15:00,
2013-02-28 09:20:00,35.4,6.2,30.53,NNW,339,4.0,4.0,29,0.00,,,0.00,Wunderground v.1.15,2013-02-28 16:20:00,
2013-02-28 09:25:00,36.0,6.8,30.53,NNW,332,3.0,4.0,29,0.00,,,0.00,Wunderground v.1.15,2013-02-28 16:25:00,
2013-02-28 09:30:00,36.4,6.3,30.53,NNW,340,3.0,9.0,28,0.00,,,0.00,Wunderground v.1.15,2013-02-28 16:30:00,
2013-02-28 09:35:00,37.1,6.1,30.53,NNW,341,2.0,9.0,27,0.00,,,0.00,Wunderground v.1.15,2013-02-28 16:35:00,
2013-02-28 09:40:00,37.0,5.2,30.53,North,5,3.0,3.0,26,0.00,,,0.00,Wunderground v.1.15,2013-02-28 16:40:00,
2013-02-28 09:45:00,37.6,5.7,30.53,North,5,3.0,3.0,26,0.00,,,0.00,Wunderground v.1.15,2013-02-28 16:45:00,
2013-02-28 09:55:00,38.1,5.3,30.53,North,351,4.0,4.0,25,0.00,,,0.00,Wunderground v.1.15,2013-02-28 16:55:00,
2013-02-28 09:59:00,37.7,5.0,30.53,North,5,4.0,5.0,25,0.00,,,0.00,Wunderground v.1.15,2013-02-28 16:59:00,
2013-02-28 10:04:00,38.4,6.4,30.52,NW,316,3.0,5.0,26,0.00,,,0.00,Wunderground v.1.15,2013-02-28 17:04:00,
2013-02-28 10:10:00,38.6,5.7,30.52,NW,324,4.0,4.0,25,0.00,,,0.00,Wunderground v.1.15,2013-02-28 17:10:00,
2013-02-28 10:15:00,38.5,6.5,30.52,NW,319,4.0,4.0,26,0.00,,,0.00,Wunderground v.1.15,2013-02-28 17:15:00,
2013-02-28 10:20:00,39.1,7.0,30.52,NW,320,3.0,5.0,26,0.00,,,0.00,Wunderground v.1.15,2013-02-28 17:20:00,
2013-02-28 10:25:00,39.3,6.3,30.52,NW,321,2.0,5.0,25,0.00,,,0.00,Wunderground v.1.15,2013-02-28 17:25:00,
2013-02-28 10:30:00,39.5,6.5,30.52,NNW,342,2.0,9.0,25,0.00,,,0.00,Wunderground v.1.15,2013-02-28 17:30:00,
2013-02-28 10:35:00,39.7,6.7,30.52,NNW,344,3.0,9.0,25,0.00,,,0.00,Wunderground v.1.15,2013-02-28 17:35:00,
2013-02-28 10:40:00,39.8,6.8,30.52,NE,46,3.0,4.0,25,0.00,,,0.00,Wunderground v.1.15,2013-02-28 17:40:00,
2013-02-28 10:45:00,40.0,6.0,30.52,North,355,3.0,4.0,24,0.00,,,0.00,Wunderground v.1.15,2013-02-28 17:45:00,
2013-02-28 10:50:00,40.2,6.2,30.52,North,355,2.0,2.0,24,0.00,,,0.00,Wunderground v.1.15,2013-02-28 17:50:00,
2013-02-28 10:55:00,40.9,6.8,30.52,NW,322,2.0,6.0,24,0.00,,,0.00,Wunderground v.1.15,2013-02-28 17:55:00,
2013-02-28 11:00:00,41.3,7.2,30.52,North,349,3.0,3.0,24,0.00,,,0.00,Wunderground v.1.15,2013-02-28 18:00:00,
2013-02-28 11:05:00,41.7,7.5,30.52,NNW,333,3.0,3.0,24,0.00,,,0.00,Wunderground v.1.15,2013-02-28 18:05:00,
2013-02-28 11:10:00,42.1,6.9,30.52,NW,321,3.0,3.0,23,0.00,,,0.00,Wunderground v.1.15,2013-02-28 18:10:00,
2013-02-28 11:15:00,41.5,6.4,30.52,NNW,329,3.0,3.0,23,0.00,,,0.00,Wunderground v.1.15,2013-02-28 18:15:00,
2013-02-28 11:19:00,41.8,7.6,30.52,NNW,341,3.0,4.0,24,0.00,,,0.00,Wunderground v.1.15,2013-02-28 18:19:00,
2013-02-28 11:25:00,41.8,7.6,30.51,WNW,299,3.0,4.0,24,0.00,,,0.00,Wunderground v.1.15,2013-02-28 18:25:00,
2013-02-28 11:30:00,42.3,8.0,30.51,NNW,338,3.0,9.0,24,0.00,,,0.00,Wunderground v.1.15,2013-02-28 18:30:00,
2013-02-28 11:35:00,42.5,8.2,30.51,NNW,341,3.0,9.0,24,0.00,,,0.00,Wunderground v.1.15,2013-02-28 18:35:00,
2013-02-28 11:40:00,42.6,7.3,30.51,North,10,2.0,2.0,23,0.00,,,0.00,Wunderground v.1.15,2013-02-28 18:40:00,
2013-02-28 11:45:00,43.0,7.7,30.51,NW,322,3.0,5.0,23,0.00,,,0.00,Wunderground v.1.15,2013-02-28 18:45:00,
2013-02-28 11:55:00,43.4,8.0,30.50,NNW,327,2.0,3.0,23,0.00,,,0.00,Wunderground v.1.15,2013-02-28 18:55:00,
2013-02-28 12:00:00,44.3,7.8,30.50,NNW,339,2.0,2.0,22,0.00,,,0.00,Wunderground v.1.15,2013-02-28 19:00:00,
2013-02-28 12:05:00,44.3,7.8,30.49,NNE,25,2.0,2.0,22,0.00,,,0.00,Wunderground v.1.15,2013-02-28 19:05:00,
2013-02-28 12:10:00,44.6,8.0,30.49,North,360,2.0,5.0,22,0.00,,,0.00,Wunderground v.1.15,2013-02-28 19:10:00,
2013-02-28 12:15:00,44.3,7.8,30.49,NNE,12,2.0,5.0,22,0.00,,,0.00,Wunderground v.1.15,2013-02-28 19:15:00,
2013-02-28 12:24:00,45.0,7.3,30.48,North,355,3.0,3.0,21,0.00,,,0.00,Wunderground v.1.15,2013-02-28 19:24:00,
2013-02-28 12:29:00,44.8,8.2,30.48,North,351,3.0,3.0,22,0.00,,,0.00,Wunderground v.1.15,2013-02-28 19:29:00,
2013-02-28 12:35:00,44.7,7.1,30.48,ENE,76,3.0,3.0,21,0.00,,,0.00,Wunderground v.1.15,2013-02-28 19:35:00,
2013-02-28 12:40:00,44.7,7.1,30.47,SE,126,2.0,6.0,21,0.00,,,0.00,Wunderground v.1.15,2013-02-28 19:40:00,
2013-02-28 12:45:00,45.5,7.8,30.47,NNE,31,2.0,6.0,21,0.00,,,0.00,Wunderground v.1.15,2013-02-28 19:45:00,
2013-02-28 12:50:00,45.7,7.9,30.47,NNE,17,2.0,2.0,21,0.00,,,0.00,Wunderground v.1.15,2013-02-28 19:50:00,
2013-02-28 12:55:00,45.9,8.1,30.46,NNE,32,2.0,2.0,21,0.00,,,0.00,Wunderground v.1.15,2013-02-28 19:55:00,
2013-02-28 13:00:00,46.0,7.1,30.46,NNE,21,3.0,3.0,20,0.00,,,0.00,Wunderground v.1.15,2013-02-28 20:00:00,
2013-02-28 13:05:00,46.3,7.3,30.46,NNE,17,2.0,3.0,20,0.00,,,0.00,Wunderground v.1.15,2013-02-28 20:05:00,
2013-02-28 13:10:00,46.6,6.5,30.45,North,355,1.0,3.0,19,0.00,,,0.00,Wunderground v.1.15,2013-02-28 20:10:00,
2013-02-28 13:15:00,46.7,6.5,30.45,NNW,345,1.0,3.0,19,0.00,,,0.00,Wunderground v.1.15,2013-02-28 20:15:00,
2013-02-28 13:20:00,47.3,7.0,30.44,NNW,345,1.0,1.0,19,0.00,,,0.00,Wunderground v.1.15,2013-02-28 20:20:00,
2013-02-28 13:25:00,47.5,6.0,30.44,NNE,24,1.0,4.0,18,0.00,,,0.00,Wunderground v.1.15,2013-02-28 20:25:00,
2013-02-28 13:29:00,47.2,7.0,30.44,North,5,2.0,10.0,19,0.00,,,0.00,Wunderground v.1.15,2013-02-28 20:29:00,
2013-02-28 13:34:00,47.9,6.4,30.43,NNW,336,2.0,10.0,18,0.00,,,0.00,Wunderground v.1.15,2013-02-28 20:34:00,
2013-02-28 13:40:00,49.0,7.3,30.43,NNW,337,2.0,2.0,18,0.00,,,0.00,Wunderground v.1.15,2013-02-28 20:40:00,
2013-02-28 13:50:00,49.2,6.2,30.43,NNW,338,2.0,2.0,17,0.00,,,0.00,Wunderground v.1.15,2013-02-28 20:50:00,
2013-02-28 13:55:00,49.9,6.7,30.42,WNW,298,2.0,2.0,17,0.00,,,0.00,Wunderground v.1.15,2013-02-28 20:55:00,
2013-02-28 14:00:00,50.0,5.5,30.42,WNW,295,1.0,1.0,16,0.00,,,0.00,Wunderground v.1.15,2013-02-28 21:00:00,
2013-02-28 14:05:00,50.2,5.6,30.42,WNW,289,1.0,2.0,16,0.00,,,0.00,Wunderground v.1.15,2013-02-28 21:05:00,
2013-02-28 14:10:00,50.6,6.0,30.42,WNW,286,1.0,1.0,16,0.00,,,0.00,Wunderground v.1.15,2013-02-28 21:10:00,
2013-02-28 14:15:00,50.5,5.9,30.42,NNE,17,2.0,3.0,16,0.00,,,0.00,Wunderground v.1.15,2013-02-28 21:15:00,
2013-02-28 14:20:00,50.6,4.6,30.41,ESE,107,2.0,3.0,15,0.00,,,0.00,Wunderground v.1.15,2013-02-28 21:20:00,
2013-02-28 14:25:00,50.6,4.6,30.41,ESE,110,2.0,3.0,15,0.00,,,0.00,Wunderground v.1.15,2013-02-28 21:25:00,
2013-02-28 14:34:00,51.4,3.7,30.41,ESE,117,1.0,6.0,14,0.00,,,0.00,Wunderground v.1.15,2013-02-28 21:34:00,
2013-02-28 14:40:00,52.5,4.6,30.41,NW,306,1.0,1.0,14,0.00,,,0.00,Wunderground v.1.15,2013-02-28 21:40:00,
2013-02-28 14:45:00,53.1,3.5,30.41,NW,306,1.0,4.0,13,0.00,,,0.00,Wunderground v.1.15,2013-02-28 21:45:00,
2013-02-28 14:50:00,53.3,3.6,30.41,NW,314,1.0,1.0,13,0.00,,,0.00,Wunderground v.1.15,2013-02-28 21:50:00,
2013-02-28 14:55:00,53.2,1.8,30.40,NE,37,2.0,2.0,12,0.00,,,0.00,Wunderground v.1.15,2013-02-28 21:55:00,
2013-02-28 15:00:00,53.2,1.8,30.40,NNE,27,1.0,1.0,12,0.00,,,0.00,Wunderground v.1.15,2013-02-28 22:00:00,
2013-02-28 15:05:00,53.1,1.7,30.40,NNE,30,1.0,1.0,12,0.00,,,0.00,Wunderground v.1.15,2013-02-28 22:05:00,
2013-02-28 15:10:00,53.4,2.0,30.40,WNW,303,1.0,5.0,12,0.00,,,0.00,Wunderground v.1.15,2013-02-28 22:10:00,
2013-02-28 15:15:00,53.3,1.9,30.39,WNW,300,2.0,5.0,12,0.00,,,0.00,Wunderground v.1.15,2013-02-28 22:15:00,
2013-02-28 15:20:00,53.6,0.2,30.39,WNW,300,2.0,2.0,11,0.00,,,0.00,Wunderground v.1.15,2013-02-28 22:20:00,
2013-02-28 15:25:00,54.2,0.7,30.39,WNW,300,1.0,2.0,11,0.00,,,0.00,Wunderground v.1.15,2013-02-28 22:25:00,
2013-02-28 15:30:00,54.2,0.7,30.39,NNW,330,1.0,3.0,11,0.00,,,0.00,Wunderground v.1.15,2013-02-28 22:30:00,
2013-02-28 15:35:00,53.9,-1.5,30.39,NW,313,2.0,3.0,10,0.00,,,0.00,Wunderground v.1.15,2013-02-28 22:35:00,
2013-02-28 15:40:00,54.1,-1.4,30.38,NW,313,1.0,3.0,10,0.00,,,0.00,Wunderground v.1.15,2013-02-28 22:40:00,
2013-02-28 15:45:00,54.6,-1.0,30.38,NW,323,1.0,4.0,10,0.00,,,0.00,Wunderground v.1.15,2013-02-28 22:45:00,
2013-02-28 15:50:00,54.7,-0.9,30.38,North,5,2.0,2.0,10,0.00,,,0.00,Wunderground v.1.15,2013-02-28 22:50:00,
2013-02-28 15:55:00,54.2,0.7,30.38,NNE,19,2.0,2.0,11,0.00,,,0.00,Wunderground v.1.15,2013-02-28 22:55:00,
2013-02-28 16:05:00,54.6,1.0,30.38,West,277,2.0,4.0,11,0.00,,,0.00,Wunderground v.1.15,2013-02-28 23:05:00,
2013-02-28 16:10:00,54.5,1.0,30.39,NW,308,3.0,3.0,11,0.00,,,0.00,Wunderground v.1.15,2013-02-28 23:10:00,
2013-02-28 16:15:00,54.1,-1.4,30.38,NNW,336,4.0,5.0,10,0.00,,,0.00,Wunderground v.1.15,2013-02-28 23:15:00,
2013-02-28 16:20:00,54.0,-1.5,30.38,West,278,5.0,5.0,10,0.00,,,0.00,Wunderground v.1.15,2013-02-28 23:20:00,
2013-02-28 16:30:00,53.5,0.2,30.38,NW,319,5.0,6.0,11,0.00,,,0.00,Wunderground v.1.15,2013-02-28 23:30:00,
2013-02-28 16:35:00,53.2,-0.1,30.39,North,360,5.0,7.0,11,0.00,,,0.00,Wunderground v.1.15,2013-02-28 23:35:00,
2013-02-28 16:40:00,52.6,-0.5,30.39,NW,316,6.0,6.0,11,0.00,,,0.00,Wunderground v.1.15,2013-02-28 23:40:00,
2013-02-28 16:50:00,51.8,0.7,30.39,North,355,6.0,6.0,12,0.00,,,0.00,Wunderground v.1.15,2013-02-28 23:50:00,
2013-02-28 16:55:00,51.8,0.7,30.39,NW,319,5.0,10.0,12,0.00,,,0.00,Wunderground v.1.15,2013-02-28 23:55:00,
2013-02-28 17:00:00,51.2,0.2,30.39,NW,312,6.0,9.0,12,0.00,,,0.00,Wunderground v.1.15,2013-03-01 00:00:00,
2013-02-28 17:04:00,50.9,1.7,30.40,North,349,7.0,9.0,13,0.00,,,0.00,Wunderground v.1.15,2013-03-01 00:04:00,
2013-02-28 17:09:00,50.6,1.5,30.40,NNW,332,5.0,5.0,13,0.00,,,0.00,Wunderground v.1.15,2013-03-01 00:09:00,
2013-02-28 17:15:00,50.6,1.5,30.39,NW,322,4.0,5.0,13,0.00,,,0.00,Wunderground v.1.15,2013-03-01 00:15:00,
2013-02-28 17:20:00,50.4,1.3,30.40,NNW,341,4.0,4.0,13,0.00,,,0.00,Wunderground v.1.15,2013-03-01 00:20:00,
2013-02-28 17:25:00,50.1,2.7,30.40,NW,321,4.0,4.0,14,0.00,,,0.00,Wunderground v.1.15,2013-03-01 00:25:00,
2013-02-28 17:30:00,49.8,2.4,30.40,NW,308,4.0,4.0,14,0.00,,,0.00,Wunderground v.1.15,2013-03-01 00:30:00,
2013-02-28 17:35:00,49.5,2.2,30.40,NW,313,5.0,5.0,14,0.00,,,0.00,Wunderground v.1.15,2013-03-01 00:35:00,
2013-02-28 17:40:00,49.3,2.0,30.40,North,355,4.0,4.0,14,0.00,,,0.00,Wunderground v.1.15,2013-03-01 00:40:00,
2013-02-28 17:45:00,49.0,1.8,30.41,NNW,330,4.0,4.0,14,0.00,,,0.00,Wunderground v.1.15,2013-03-01 00:45:00,
2013-02-28 17:50:00,48.6,2.9,30.41,NW,319,5.0,5.0,15,0.00,,,0.00,Wunderground v.1.15,2013-03-01 00:50:00,
2013-02-28 17:55:00,48.2,2.6,30.41,NNE,16,5.0,5.0,15,0.00,,,0.00,Wunderground v.1.15,2013-03-01 00:55:00,
2013-02-28 18:00:00,48.0,2.5,30.41,NNW,329,4.0,6.0,15,0.00,,,0.00,Wunderground v.1.15,2013-03-01 01:00:00,
2013-02-28 18:05:00,47.7,2.2,30.41,NNW,333,5.0,6.0,15,0.00,,,0.00,Wunderground v.1.15,2013-03-01 01:05:00,
2013-02-28 18:10:00,47.4,3.4,30.41,NNW,329,4.0,4.0,16,0.00,,,0.00,Wunderground v.1.15,2013-03-01 01:10:00,
2013-02-28 18:15:00,47.2,3.2,30.41,NW,321,3.0,4.0,16,0.00,,,0.00,Wunderground v.1.15,2013-03-01 01:15:00,
2013-02-28 18:20:00,46.9,3.0,30.41,North,360,3.0,4.0,16,0.00,,,0.00,Wunderground v.1.15,2013-03-01 01:20:00,
2013-02-28 18:25:00,46.7,2.8,30.41,North,350,3.0,4.0,16,0.00,,,0.00,Wunderground v.1.15,2013-03-01 01:25:00,
2013-02-28 18:35:00,46.3,2.5,30.41,NNW,336,2.0,2.0,16,0.00,,,0.00,Wunderground v.1.15,2013-03-01 01:35:00,
2013-02-28 18:40:00,46.2,2.4,30.41,NNW,337,2.0,2.0,16,0.00,,,0.00,Wunderground v.1.15,2013-03-01 01:40:00,
2013-02-28 18:44:00,46.0,2.2,30.41,NNW,338,2.0,2.0,16,0.00,,,0.00,Wunderground v.1.15,2013-03-01 01:44:00,
2013-02-28 18:49:00,45.8,2.1,30.41,NW,317,2.0,2.0,16,0.00,,,0.00,Wunderground v.1.15,2013-03-01 01:49:00,
2013-02-28 18:55:00,45.7,3.3,30.41,NW,317,2.0,6.0,17,0.00,,,0.00,Wunderground v.1.15,2013-03-01 01:55:00,
2013-02-28 19:00:00,45.7,2.0,30.41,NNW,344,3.0,3.0,16,0.00,,,0.00,Wunderground v.1.15,2013-03-01 02:00:00,
2013-02-28 19:05:00,45.6,3.2,30.41,WNW,302,3.0,5.0,17,0.00,,,0.00,Wunderground v.1.15,2013-03-01 02:05:00,
2013-02-28 19:10:00,45.4,3.0,30.41,NW,317,3.0,3.0,17,0.00,,,0.00,Wunderground v.1.15,2013-03-01 02:10:00,
2013-02-28 19:15:00,45.4,3.0,30.41,North,360,4.0,4.0,17,0.00,,,0.00,Wunderground v.1.15,2013-03-01 02:15:00,
2013-02-28 19:20:00,45.2,2.9,30.41,NW,317,3.0,3.0,17,0.00,,,0.00,Wunderground v.1.15,2013-03-01 02:20:00,
2013-02-28 19:25:00,45.0,2.7,30.41,North,9,2.0,3.0,17,0.00,,,0.00,Wunderground v.1.15,2013-03-01 02:25:00,
2013-02-28 19:30:00,44.8,2.6,30.42,NW,325,2.0,6.0,17,0.00,,,0.00,Wunderground v.1.15,2013-03-01 02:30:00,
2013-02-28 19:34:00,44.6,2.4,30.43,North,355,2.0,6.0,17,0.00,,,0.00,Wunderground v.1.15,2013-03-01 02:34:00,
2013-02-28 19:40:00,44.3,3.4,30.43,North,355,2.0,2.0,18,0.00,,,0.00,Wunderground v.1.15,2013-03-01 02:40:00,
2013-02-28 19:50:00,43.7,2.9,30.43,North,355,1.0,1.0,18,0.00,,,0.00,Wunderground v.1.15,2013-03-01 02:50:00,
2013-02-28 19:55:00,43.4,2.6,30.43,North,355,0.0,1.0,18,0.00,,,0.00,Wunderground v.1.15,2013-03-01 02:55:00,
2013-02-28 20:00:00,42.9,3.4,30.44,North,355,0.0,0.0,19,0.00,,,0.00,Wunderground v.1.15,2013-03-01 03:00:00,
2013-02-28 20:05:00,42.4,3.0,30.44,North,355,0.0,0.0,19,0.00,,,0.00,Wunderground v.1.15,2013-03-01 03:05:00,
2013-02-28 20:10:00,41.9,3.7,30.44,North,355,0.0,0.0,20,0.00,,,0.00,Wunderground v.1.15,2013-03-01 03:10:00,
2013-02-28 20:15:00,41.6,3.4,30.44,North,355,0.0,0.0,20,0.00,,,0.00,Wunderground v.1.15,2013-03-01 03:15:00,
2013-02-28 20:19:00,41.7,2.4,30.44,North,355,0.0,6.0,19,0.00,,,0.00,Wunderground v.1.15,2013-03-01 03:19:00,
2013-02-28 20:24:00,42.3,2.9,30.44,NNW,344,1.0,6.0,19,0.00,,,0.00,Wunderground v.1.15,2013-03-01 03:24:00,
2013-02-28 20:30:00,42.9,2.2,30.44,North,349,2.0,7.0,18,0.00,,,0.00,Wunderground v.1.15,2013-03-01 03:30:00,
2013-02-28 20:40:00,43.2,2.5,30.44,NW,317,3.0,3.0,18,0.00,,,0.00,Wunderground v.1.15,2013-03-01 03:40:00,
2013-02-28 20:45:00,43.1,2.4,30.44,NW,314,2.0,3.0,18,0.00,,,0.00,Wunderground v.1.15,2013-03-01 03:45:00,
2013-02-28 20:50:00,42.9,2.2,30.44,NW,309,2.0,2.0,18,0.00,,,0.00,Wunderground v.1.15,2013-03-01 03:50:00,
2013-02-28 20:55:00,42.7,3.2,30.44,NW,306,1.0,2.0,19,0.00,,,0.00,Wunderground v.1.15,2013-03-01 03:55:00,
2013-02-28 21:05:00,42.4,4.1,30.44,NNW,336,1.0,3.0,20,0.00,,,0.00,Wunderground v.1.15,2013-03-01 04:05:00,
2013-02-28 21:10:00,42.4,4.1,30.45,NNW,336,2.0,2.0,20,0.00,,,0.00,Wunderground v.1.15,2013-03-01 04:10:00,
2013-02-28 21:15:00,42.4,4.1,30.45,North,355,2.0,5.0,20,0.00,,,0.00,Wunderground v.1.15,2013-03-01 04:15:00,
2013-02-28 21:19:00,42.4,4.1,30.45,NNW,338,3.0,3.0,20,0.00,,,0.00,Wunderground v.1.15,2013-03-01 04:19:00,
2013-02-28 21:24:00,42.4,4.1,30.45,NNW,340,2.0,4.0,20,0.00,,,0.00,Wunderground v.1.15,2013-03-01 04:24:00,
2013-02-28 21:30:00,42.2,3.9,30.45,NNW,340,1.0,1.0,20,0.00,,,0.00,Wunderground v.1.15,2013-03-01 04:30:00,
2013-02-28 21:35:00,41.9,3.7,30.45,NNW,337,1.0,1.0,20,0.00,,,0.00,Wunderground v.1.15,2013-03-01 04:35:00,
2013-02-28 21:40:00,41.5,4.4,30.45,NW,311,1.0,1.0,21,0.00,,,0.00,Wunderground v.1.15,2013-03-01 04:40:00,
2013-02-28 21:45:00,41.3,4.2,30.46,North,5,1.0,2.0,21,0.00,,,0.00,Wunderground v.1.15,2013-03-01 04:45:00,
2013-02-28 21:55:00,41.3,4.2,30.47,North,350,2.0,3.0,21,0.00,,,0.00,Wunderground v.1.15,2013-03-01 04:55:00,
2013-02-28 22:00:00,41.4,5.3,30.47,NNW,340,2.0,2.0,22,0.00,,,0.00,Wunderground v.1.15,2013-03-01 05:00:00,
2013-02-28 22:05:00,41.2,5.2,30.47,NW,314,2.0,2.0,22,0.00,,,0.00,Wunderground v.1.15,2013-03-01 05:05:00,
2013-02-28 22:10:00,41.0,5.0,30.48,North,5,1.0,2.0,22,0.00,,,0.00,Wunderground v.1.15,2013-03-01 05:10:00,
2013-02-28 22:14:00,41.0,5.0,30.48,North,351,2.0,2.0,22,0.00,,,0.00,Wunderground v.1.15,2013-03-01 05:14:00,
2013-02-28 22:20:00,41.0,5.0,30.47,North,349,2.0,2.0,22,0.00,,,0.00,Wunderground v.1.15,2013-03-01 05:20:00,
2013-02-28 22:25:00,40.8,4.8,30.48,NNE,13,1.0,2.0,22,0.00,,,0.00,Wunderground v.1.15,2013-03-01 05:25:00,
2013-02-28 22:30:00,40.6,4.7,30.48,NE,36,2.0,5.0,22,0.00,,,0.00,Wunderground v.1.15,2013-03-01 05:30:00,
2013-02-28 22:35:00,40.6,5.6,30.48,NNW,345,2.0,5.0,23,0.00,,,0.00,Wunderground v.1.15,2013-03-01 05:35:00,
2013-02-28 22:40:00,40.4,5.5,30.47,North,355,2.0,2.0,23,0.00,,,0.00,Wunderground v.1.15,2013-03-01 05:40:00,
2013-02-28 22:45:00,40.2,5.3,30.47,NNW,342,2.0,2.0,23,0.00,,,0.00,Wunderground v.1.15,2013-03-01 05:45:00,
2013-02-28 22:50:00,40.2,5.3,30.47,NNE,31,3.0,3.0,23,0.00,,,0.00,Wunderground v.1.15,2013-03-01 05:50:00,
2013-02-28 22:55:00,40.1,5.2,30.46,North,355,4.0,5.0,23,0.00,,,0.00,Wunderground v.1.15,2013-03-01 05:55:00,
2013-02-28 22:59:00,40.1,5.2,30.46,NNW,333,5.0,5.0,23,0.00,,,0.00,Wunderground v.1.15,2013-03-01 05:59:00,
2013-02-28 23:04:00,39.9,5.0,30.45,NW,321,4.0,5.0,23,0.00,,,0.00,Wunderground v.1.15,2013-03-01 06:04:00,
2013-02-28 23:10:00,39.7,4.9,30.45,NNW,331,3.0,3.0,23,0.00,,,0.00,Wunderground v.1.15,2013-03-01 06:10:00,
2013-02-28 23:15:00,39.6,4.8,30.45,North,355,2.0,3.0,23,0.00,,,0.00,Wunderground v.1.15,2013-03-01 06:15:00,
2013-02-28 23:20:00,39.7,4.9,30.45,NNW,337,2.0,2.0,23,0.00,,,0.00,Wunderground v.1.15,2013-03-01 06:20:00,
2013-02-28 23:25:00,39.5,4.7,30.46,NNW,337,1.0,2.0,23,0.00,,,0.00,Wunderground v.1.15,2013-03-01 06:25:00,
2013-02-28 23:30:00,39.2,5.4,30.45,NNW,339,0.0,7.0,24,0.00,,,0.00,Wunderground v.1.15,2013-03-01 06:30:00,
2013-02-28 23:35:00,38.8,5.0,30.46,NNW,339,0.0,7.0,24,0.00,,,0.00,Wunderground v.1.15,2013-03-01 06:35:00,
2013-02-28 23:44:00,38.8,5.0,30.46,NNW,342,1.0,2.0,24,0.00,,,0.00,Wunderground v.1.15,2013-03-01 06:44:00,
2013-02-28 23:49:00,39.0,5.2,30.45,ENE,58,1.0,1.0,24,0.00,,,0.00,Wunderground v.1.15,2013-03-01 06:49:00,
2013-02-28 23:54:00,39.0,5.2,30.45,NNE,18,1.0,1.0,24,0.00,,,0.00,Wunderground v.1.15,2013-03-01 06:54:00,